This demonstration page uses our WeatherBlox Daily Observations layout. Learn more.

Left ArrowRight Arrow

Hourly Observations for June 17, 2021

Temp ( °F °C ) Dew Point ( °F °C ) Humidity (%) Winds ( mph kmh ) Pressure ( in mb ) Visibility ( mi km ) Precip ( " mm )
12:59 am 00:59 Mostly Clear 66 18.9 61 16.1 84 84 S 3 6 29.98 1015 10 16 0.00 0.00
1:59 am 01:59 Mostly Clear 65 18.3 61 16.1 87 87 SSE 3 6 29.97 1015 10 16 0.00 0.00
2:59 am 02:59 Partly Cloudy 67 19.4 61 16.1 81 81 Calm 29.96 1015 10 16 0.00 0.00
3:59 am 03:59 Partly Cloudy 66 18.9 62 16.7 87 87 Calm 29.96 1015 10 16 0.00 0.00
4:59 am 04:59 Partly Cloudy 67 19.4 62 16.7 84 84 W 5 7 29.97 1015 10 16 0.00 0.00
5:59 am 05:59 Partly Cloudy 70 21.1 62 16.7 76 76 NW 10 17 29.98 1015 10 16 0.00 0.00
6:59 am 06:59 Partly Cloudy 70 21.1 58 14.4 66 66 NNW 7 11 29.99 1016 10 16 0.00 0.00
7:59 am 07:59 Partly Cloudy 72 22.2 56 13.3 57 57 N 5 7 30.01 1016 10 16 0.00 0.00
8:59 am 08:59 Mostly Sunny 75 23.9 52 11.1 45 45 N 8 13 30.02 1017 10 16 0.00 0.00
9:59 am 09:59 Mostly Sunny 77 25 50 10 39 39 N 9 15 30.02 1017 10 16 0.00 0.00
10:59 am 10:59 Mostly Sunny 79 26.1 48 8.9 34 34 NNE 10 17 30.03 1017 10 16 0.00 0.00
11:59 am 11:59 Mostly Sunny 79 26.1 51 10.6 38 38 N 9 15 30.03 1017 10 16 0.00 0.00
12:59 pm 12:59 Mostly Sunny 79 26.1 48 8.9 34 34 VRB 7 11 30.02 1017 10 16 0.00 0.00
1:59 pm 13:59 Sunny 80 26.7 47 8.3 31 31 WNW 15 24 30.03 1017 10 16 0.00 0.00
2:59 pm 14:59 Mostly Sunny 80 26.7 46 7.8 30 30 WNW 10 17 30.02 1017 10 16 0.00 0.00
3:59 pm 15:59 Mostly Sunny 80 26.7 47 8.3 31 31 WNW 7 11 30.01 1016 10 16 0.00 0.00
4:59 pm 16:59 Mostly Sunny 81 27.2 48 8.9 32 32 NNE 9 15 30.01 1016 10 16 0.00 0.00
5:59 pm 17:59 Mostly Sunny 77 25 54 12.2 45 45 NNE 13 20 30.02 1017 10 16 0.00 0.00
6:59 pm 18:59 Mostly Sunny 76 24.4 52 11.1 43 43 NE 12 19 30.04 1017 10 16 0.00 0.00
7:59 pm 19:59 Mostly Sunny 75 23.9 51 10.6 43 43 NE 7 11 30.05 1018 10 16 0.00 0.00
8:59 pm 20:59 Clear 73 22.8 50 10 44 44 NE 6 9 30.06 1018 10 16 0.00 0.00
9:59 pm 21:59 Clear 66 18.9 53 11.7 63 63 Calm 30.08 1019 10 16 0.00 0.00
10:59 pm 22:59 Clear 64 17.8 52 11.1 65 65 SSE 3 6 30.10 1019 10 16 0.00 0.00
11:59 pm 23:59 Clear 63 17.2 53 11.7 70 70 SSE 5 7 30.10 1019 10 16 0.00 0.00

Powered by AerisWeather